User: anonymous   Login
Location: Follega
(52.8850°N, 5.7362°E)
Time: 02:31:19
(UTC+00:00)
Language:

EXPRESS MD2 - Orbit

View from above orbital plane
View from above orbital plane
View from above satellite
View from above satellite

Ground track
Ground track

The orbit data is extracted from the following two-line orbital elements,

1 38745U 12044B   20221.55306048 +.00010632 +29819-5 +27405-3 0  9993
2 38745 049.8869 338.5851 2206133 172.2323 191.9581 11.04322236313110
Epoch (UTC): 08 August 2020 13:16:24
Eccentricity: 0.2206133
inclination: 49.8869°
perigee height: 260 km
apogee height: 4019 km
right ascension of ascending node: 338.5851°
argument of perigee: 172.2323°
revolutions per day: 11.04322236
mean anomaly at epoch: 191.9581°
orbit number at epoch: 31311

The dashed part of the orbit path shows where the satellite is in the earth's shadow,  

DLR